QPF
0.01 0.00 0.00 0.00 0.00 0.00 0.00 0.00 0.00 0.00 0.00 0.00 0.03 0.04 0.02 0.01 0.01 0.01 0.01 0.03 0.07 0.08 0.04 0.02 0.01 0.01 0.01 0.01 0.01 0.01 0.01 0.02 0.01 0.01 0.00 0.00 0.00 0.00 0.00 0.00 0.00 0.01 0.01
0.02 0.01 0.01 0.00 0.00 0.01 0.00 0.00 0.00 0.00 0.00 0.00 0.01 0.02 0.02 0.01 0.01 0.02 0.02 0.04 0.07 0.11 0.11 0.06 0.03 0.02 0.02 0.01 0.01 0.01 0.01 0.01 0.01 0.01 0.01 0.00 0.00 0.00 0.00 0.00 0.01 0.00 0.01
0.02 0.01 0.02 0.01 0.00 0.00 0.00 0.00 0.01 0.00 0.00 0.00 0.00 0.00 0.00 0.00 0.01 0.01 0.02 0.02 0.03 0.07 0.10 0.09 0.05 0.04 0.02 0.01 0.01 0.01 0.01 0.01 0.01 0.01 0.01 0.01 0.00 0.00 0.00 0.00 0.00 0.00 0.00
0.01 0.01 0.02 0.02 0.01 0.00 0.00 0.01 0.01 0.01 0.00 0.00 0.00 0.00 0.00 0.00 0.00 0.00 0.01 0.01 0.00 0.01 0.03 0.04 0.03 0.02 0.02 0.01 0.01 0.00 0.01 0.01 0.01 0.01 0.01 0.00 0.00 0.00 0.00 0.00 0.00 0.00 0.00
0.03 0.02 0.02 0.03 0.02 0.01 0.01 0.00 0.01 0.01 0.00 0.00 0.00 0.00 0.00 0.00 0.00 0.00 0.00 0.00 0.00 0.00 0.00 0.00 0.00 0.00 0.00 0.00 0.01 0.01 0.01 0.00 0.00 0.00 0.00 0.00 0.00 0.00 0.00 0.00 0.00 0.00 0.00
0.08 0.05 0.03 0.04 0.04 0.02 0.01 0.01 0.01 0.01 0.01 0.01 0.00 0.00 0.00 0.00 0.00 0.00 0.00 0.00 0.00 0.00 0.00 0.00 0.00 0.00 0.00 0.00 0.01 0.01 0.01 0.01 0.01 0.00 0.00 0.00 0.00 0.00 0.00 0.00 0.00 0.00 0.00
0.13 0.14 0.10 0.08 0.07 0.04 0.02 0.03 0.04 0.04 0.04 0.03 0.02 0.01 0.00 0.00 0.00 0.00 0.00 0.00 0.00 0.00 0.00 0.00 0.00 0.00 0.00 0.00 0.00 0.01 0.01 0.02 0.02 0.02 0.01 0.00 0.00 0.00 0.00 0.01 0.01 0.01 0.00
0.17 0.24 0.23 0.18 0.13 0.09 0.07 0.07 0.08 0.10 0.11 0.09 0.09 0.06 0.02 0.01 0.00 0.00 0.00 0.00 0.00 0.00 0.00 0.00 0.00 0.00 0.00 0.00 0.00 0.00 0.00 0.01 0.02 0.02 0.01 0.01 0.00 0.00 0.00 0.00 0.01 0.01 0.01
0.20 0.27 0.30 0.26 0.19 0.16 0.16 0.16 0.17 0.16 0.15 0.15 0.14 0.11 0.03 0.01 0.00 0.00 0.00 0.00 0.00 0.00 0.00 0.00 0.00 0.00 0.00 0.00 0.00 0.00 0.00 0.00 0.01 0.01 0.00 0.01 0.01 0.00 0.00 0.00 0.01 0.01 0.01
0.19 0.22 0.28 0.31 0.27 0.23 0.24 0.23 0.21 0.18 0.15 0.13 0.12 0.12 0.09 0.06 0.02 0.00 0.00 0.00 0.00 0.00 0.00 0.00 0.00 0.00 0.00 0.00 0.00 0.00 0.00 0.00 0.00 0.00 0.00 0.00 0.01 0.01 0.01 0.01 0.01 0.01 0.01
0.13 0.17 0.23 0.28 0.29 0.30 0.31 0.31 0.23 0.17 0.14 0.11 0.11 0.15 0.19 0.19 0.10 0.03 0.00 0.00 0.00 0.00 0.00 0.00 0.00 0.00 0.00 0.00 0.00 0.00 0.00 0.00 0.00 0.00 0.00 0.00 0.01 0.01 0.01 0.01 0.02 0.02 0.02
0.07 0.10 0.14 0.17 0.19 0.22 0.26 0.28 0.25 0.22 0.16 0.12 0.09 0.10 0.16 0.21 0.20 0.13 0.05 0.01 0.00 0.00 0.00 0.00 0.00 0.00 0.00 0.00 0.00 0.00 0.00 0.00 0.00 0.00 0.00 0.00 0.00 0.00 0.01 0.01 0.01 0.01 0.01
0.03 0.04 0.06 0.08 0.11 0.11 0.16 0.20 0.18 0.19 0.18 0.14 0.10 0.10 0.14 0.17 0.18 0.20 0.14 0.05 0.01 0.00 0.00 0.00 0.00 0.00 0.00 0.00 0.00 0.00 0.00 0.00 0.00 0.00 0.00 0.00 0.00 0.00 0.00 0.00 0.01 0.02 0.02
0.01 0.01 0.02 0.04 0.07 0.10 0.14 0.18 0.16 0.15 0.16 0.16 0.15 0.14 0.14 0.17 0.20 0.20 0.19 0.11 0.04 0.02 0.01 0.01 0.00 0.00 0.00 0.00 0.00 0.00 0.00 0.00 0.00 0.00 0.00 0.00 0.00 0.00 0.00 0.00 0.00 0.01 0.01
0.00 0.01 0.01 0.03 0.05 0.07 0.10 0.16 0.19 0.22 0.22 0.19 0.19 0.20 0.19 0.21 0.25 0.24 0.22 0.17 0.10 0.04 0.02 0.02 0.02 0.02 0.01 0.00 0.00 0.00 0.00 0.00 0.00 0.00 0.00 0.00 0.00 0.00 0.00 0.00 0.00 0.00 0.00
0.00 0.00 0.01 0.02 0.03 0.04 0.05 0.07 0.10 0.17 0.22 0.21 0.22 0.26 0.25 0.27 0.32 0.34 0.30 0.23 0.16 0.09 0.04 0.02 0.02 0.03 0.03 0.02 0.01 0.00 0.00 0.00 0.00 0.00 0.00 0.00 0.00 0.00 0.00 0.00 0.00 0.00 0.00
0.00 0.00 0.00 0.00 0.00 0.01 0.01 0.02 0.04 0.06 0.10 0.15 0.18 0.25 0.29 0.34 0.39 0.41 0.41 0.34 0.24 0.16 0.11 0.06 0.02 0.03 0.02 0.02 0.01 0.00 0.00 0.00 0.00 0.00 0.00 0.00 0.00 0.00 0.00 0.00 0.00 0.00 0.00
0.00 0.00 0.00 0.00 0.01 0.00 0.00 0.00 0.01 0.01 0.03 0.06 0.10 0.16 0.23 0.28 0.35 0.40 0.43 0.43 0.37 0.25 0.16 0.11 0.05 0.03 0.02 0.02 0.01 0.01 0.00 0.00 0.00 0.00 0.00 0.00 0.00 0.00 0.00 0.00 0.00 0.00 0.00
0.00 0.01 0.01 0.01 0.01 0.00 0.00 0.00 0.00 0.00 0.01 0.02 0.04 0.08 0.14 0.21 0.28 0.36 0.41 0.40 0.37 0.31 0.21 0.14 0.09 0.06 0.04 0.02 0.01 0.01 0.01 0.00 0.00 0.00 0.00 0.00 0.00 0.00 0.00 0.00 0.00 0.00 0.00
0.01 0.02 0.03 0.04 0.03 0.01 0.00 0.00 0.00 0.00 0.00 0.01 0.02 0.04 0.08 0.12 0.17 0.23 0.29 0.32 0.32 0.29 0.23 0.17 0.11 0.08 0.07 0.04 0.02 0.01 0.00 0.00 0.00 0.00 0.00 0.00 0.00 0.00 0.00 0.00 0.00 0.00 0.00
0.03 0.04 0.04 0.06 0.07 0.04 0.03 0.03 0.01 0.00 0.00 0.00 0.00 0.01 0.03 0.05 0.09 0.12 0.16 0.19 0.21 0.23 0.21 0.18 0.14 0.10 0.07 0.05 0.03 0.02 0.01 0.00 0.00 0.00 0.00 0.00 0.00 0.00 0.00 0.00 0.00 0.00 0.00
0.07 0.06 0.06 0.08 0.09 0.07 0.06 0.06 0.04 0.01 0.01 0.00 0.00 0.00 0.01 0.02 0.05 0.07 0.08 0.10 0.11 0.12 0.13 0.12 0.11 0.09 0.07 0.06 0.05 0.04 0.02 0.01 0.00 0.00 0.00 0.00 0.00 0.00 0.00 0.00 0.00 0.00 0.00
0.11 0.09 0.08 0.10 0.13 0.13 0.10 0.07 0.06 0.04 0.02 0.02 0.01 0.01 0.01 0.01 0.01 0.02 0.04 0.07 0.07 0.07 0.06 0.07 0.06 0.06 0.05 0.05 0.05 0.04 0.02 0.01 0.00 0.00 0.00 0.00 0.00 0.00 0.00 0.00 0.00 0.00 0.00
0.12 0.11 0.10 0.11 0.12 0.12 0.09 0.07 0.07 0.05 0.03 0.02 0.02 0.02 0.02 0.01 0.01 0.01 0.01 0.02 0.03 0.04 0.04 0.04 0.02 0.03 0.04 0.04 0.04 0.04 0.05 0.05 0.02 0.01 0.00 0.00 0.00 0.00 0.00 0.00 0.00 0.00 0.00
0.08 0.11 0.11 0.11 0.10 0.10 0.09 0.07 0.07 0.06 0.04 0.03 0.02 0.02 0.03 0.03 0.02 0.03 0.04 0.03 0.02 0.02 0.02 0.02 0.02 0.03 0.04 0.06 0.08 0.10 0.09 0.07 0.04 0.02 0.01 0.00 0.00 0.00 0.00 0.00 0.00 0.00 0.00
0.04 0.06 0.09 0.09 0.08 0.08 0.11 0.07 0.08 0.09 0.05 0.04 0.04 0.05 0.06 0.06 0.05 0.04 0.02 0.02 0.01 0.01 0.01 0.01 0.01 0.02 0.02 0.04 0.06 0.07 0.08 0.09 0.07 0.04 0.03 0.02 0.00 0.00 0.00 0.00 0.00 0.00 0.00
MSLP
1014.04 1014.17 1014.23 1014.23 1014.22 1014.22 1014.25 1014.31 1014.39 1014.48 1014.57 1014.65 1014.73 1014.81 1014.91 1015.03 1015.16 1015.30 1015.41 1015.49 1015.53 1015.52 1015.49 1015.46 1015.46 1015.50 1015.58 1015.70 1015.83 1015.94 1016.00 1016.02 1016.00 1015.97 1015.97 1016.02 1016.13 1016.29 1016.45 1016.57 1016.60 1016.51 1016.30
1013.69 1013.82 1013.89 1013.93 1013.98 1014.04 1014.14 1014.25 1014.39 1014.53 1014.66 1014.79 1014.91 1015.03 1015.16 1015.31 1015.45 1015.59 1015.69 1015.76 1015.79 1015.78 1015.76 1015.74 1015.76 1015.82 1015.91 1016.03 1016.13 1016.20 1016.22 1016.19 1016.13 1016.07 1016.06 1016.10 1016.22 1016.38 1016.54 1016.65 1016.66 1016.55 1016.33
1013.27 1013.39 1013.49 1013.58 1013.70 1013.85 1014.02 1014.22 1014.43 1014.64 1014.82 1015.00 1015.15 1015.31 1015.46 1015.61 1015.75 1015.87 1015.96 1016.01 1016.02 1016.01 1015.99 1015.99 1016.03 1016.11 1016.22 1016.33 1016.42 1016.46 1016.43 1016.36 1016.25 1016.16 1016.12 1016.15 1016.25 1016.40 1016.56 1016.66 1016.67 1016.55 1016.34
1012.83 1012.95 1013.08 1013.23 1013.43 1013.67 1013.94 1014.23 1014.52 1014.78 1015.03 1015.24 1015.43 1015.60 1015.76 1015.91 1016.04 1016.14 1016.20 1016.23 1016.22 1016.20 1016.19 1016.21 1016.27 1016.37 1016.49 1016.60 1016.68 1016.69 1016.64 1016.52 1016.37 1016.24 1016.16 1016.16 1016.25 1016.39 1016.54 1016.64 1016.64 1016.54 1016.34
1012.41 1012.54 1012.71 1012.93 1013.20 1013.53 1013.89 1014.26 1014.62 1014.94 1015.23 1015.47 1015.69 1015.88 1016.05 1016.20 1016.32 1016.40 1016.44 1016.44 1016.42 1016.39 1016.38 1016.40 1016.48 1016.59 1016.73 1016.85 1016.92 1016.92 1016.84 1016.69 1016.50 1016.33 1016.22 1016.19 1016.24 1016.36 1016.50 1016.60 1016.61 1016.52 1016.34
1012.05 1012.19 1012.40 1012.67 1013.02 1013.42 1013.86 1014.29 1014.70 1015.07 1015.38 1015.66 1015.89 1016.10 1016.29 1016.45 1016.57 1016.65 1016.68 1016.67 1016.63 1016.60 1016.58 1016.61 1016.69 1016.81 1016.96 1017.08 1017.16 1017.15 1017.05 1016.88 1016.66 1016.46 1016.31 1016.24 1016.27 1016.36 1016.48 1016.57 1016.60 1016.52 1016.36
1011.76 1011.91 1012.14 1012.46 1012.87 1013.32 1013.81 1014.28 1014.72 1015.11 1015.44 1015.74 1016.00 1016.24 1016.46 1016.64 1016.79 1016.89 1016.94 1016.93 1016.89 1016.84 1016.81 1016.83 1016.91 1017.03 1017.18 1017.31 1017.39 1017.38 1017.28 1017.10 1016.87 1016.64 1016.46 1016.36 1016.35 1016.41 1016.50 1016.59 1016.61 1016.55 1016.41
1011.51 1011.67 1011.93 1012.28 1012.71 1013.20 1013.70 1014.18 1014.63 1015.02 1015.37 1015.69 1015.98 1016.27 1016.53 1016.77 1016.98 1017.12 1017.19 1017.20 1017.17 1017.12 1017.08 1017.08 1017.14 1017.25 1017.39 1017.52 1017.61 1017.62 1017.53 1017.35 1017.12 1016.88 1016.68 1016.54 1016.49 1016.52 1016.58 1016.64 1016.66 1016.60 1016.47
1011.30 1011.47 1011.74 1012.10 1012.54 1013.02 1013.51 1013.98 1014.41 1014.79 1015.15 1015.48 1015.81 1016.15 1016.49 1016.80 1017.08 1017.29 1017.42 1017.46 1017.45 1017.39 1017.34 1017.32 1017.35 1017.44 1017.57 1017.70 1017.79 1017.82 1017.76 1017.61 1017.40 1017.16 1016.95 1016.79 1016.70 1016.68 1016.71 1016.75 1016.75 1016.68 1016.55
1011.11 1011.28 1011.55 1011.91 1012.34 1012.80 1013.25 1013.68 1014.07 1014.43 1014.77 1015.12 1015.49 1015.89 1016.30 1016.71 1017.07 1017.36 1017.55 1017.64 1017.64 1017.59 1017.52 1017.47 1017.48 1017.54 1017.66 1017.79 1017.90 1017.96 1017.94 1017.83 1017.66 1017.45 1017.24 1017.07 1016.95 1016.90 1016.88 1016.88 1016.86 1016.79 1016.65
1010.93 1011.11 1011.38 1011.72 1012.12 1012.53 1012.93 1013.30 1013.64 1013.96 1014.29 1014.64 1015.04 1015.49 1015.98 1016.46 1016.91 1017.27 1017.53 1017.67 1017.70 1017.66 1017.58 1017.51 1017.49 1017.53 1017.63 1017.77 1017.90 1018.00 1018.04 1017.99 1017.87 1017.71 1017.52 1017.35 1017.21 1017.13 1017.08 1017.04 1016.99 1016.91 1016.77
1010.79 1010.97 1011.22 1011.55 1011.90 1012.26 1012.60 1012.90 1013.18 1013.45 1013.75 1014.09 1014.51 1014.99 1015.52 1016.07 1016.58 1017.01 1017.33 1017.51 1017.57 1017.54 1017.46 1017.38 1017.34 1017.37 1017.47 1017.62 1017.79 1017.94 1018.04 1018.06 1018.02 1017.91 1017.76 1017.61 1017.47 1017.36 1017.28 1017.22 1017.14 1017.04 1016.90
1010.68 1010.86 1011.11 1011.41 1011.72 1012.03 1012.30 1012.54 1012.76 1012.97 1013.23 1013.54 1013.94 1014.43 1014.98 1015.56 1016.11 1016.58 1016.93 1017.15 1017.25 1017.24 1017.17 1017.10 1017.06 1017.09 1017.20 1017.37 1017.57 1017.78 1017.94 1018.05 1018.08 1018.04 1017.95 1017.83 1017.70 1017.59 1017.49 1017.40 1017.31 1017.20 1017.06
1010.62 1010.81 1011.06 1011.33 1011.61 1011.86 1012.08 1012.26 1012.42 1012.58 1012.78 1013.06 1013.42 1013.88 1014.41 1014.98 1015.53 1016.01 1016.39 1016.64 1016.77 1016.80 1016.76 1016.71 1016.69 1016.74 1016.86 1017.06 1017.30 1017.55 1017.78 1017.97 1018.07 1018.11 1018.08 1018.01 1017.91 1017.80 1017.70 1017.59 1017.49 1017.37 1017.24
1010.61 1010.81 1011.05 1011.31 1011.56 1011.78 1011.96 1012.10 1012.21 1012.32 1012.47 1012.69 1013.00 1013.40 1013.88 1014.40 1014.93 1015.40 1015.78 1016.05 1016.21 1016.28 1016.29 1016.28 1016.30 1016.38 1016.53 1016.75 1017.02 1017.32 1017.60 1017.84 1018.02 1018.13 1018.16 1018.14 1018.08 1017.99 1017.89 1017.79 1017.68 1017.56 1017.43
1010.64 1010.84 1011.07 1011.32 1011.55 1011.76 1011.92 1012.04 1012.13 1012.21 1012.32 1012.48 1012.72 1013.05 1013.45 1013.90 1014.37 1014.80 1015.18 1015.46 1015.66 1015.78 1015.85 1015.90 1015.97 1016.09 1016.27 1016.51 1016.80 1017.11 1017.42 1017.71 1017.93 1018.10 1018.19 1018.23 1018.21 1018.15 1018.07 1017.96 1017.85 1017.74 1017.61
1010.67 1010.86 1011.09 1011.32 1011.56 1011.77 1011.93 1012.06 1012.15 1012.22 1012.30 1012.42 1012.59 1012.84 1013.16 1013.52 1013.92 1014.30 1014.65 1014.95 1015.18 1015.36 1015.49 1015.61 1015.74 1015.89 1016.10 1016.34 1016.63 1016.95 1017.26 1017.56 1017.81 1018.02 1018.16 1018.24 1018.27 1018.25 1018.19 1018.10 1018.00 1017.88 1017.77
1010.67 1010.84 1011.05 1011.28 1011.52 1011.75 1011.94 1012.09 1012.20 1012.29 1012.37 1012.46 1012.58 1012.76 1012.99 1013.27 1013.59 1013.92 1014.24 1014.54 1014.81 1015.03 1015.23 1015.41 1015.59 1015.78 1016.00 1016.24 1016.51 1016.80 1017.09 1017.38 1017.64 1017.86 1018.04 1018.17 1018.24 1018.26 1018.23 1018.17 1018.08 1017.97 1017.85
1010.63 1010.76 1010.94 1011.16 1011.40 1011.65 1011.88 1012.08 1012.24 1012.36 1012.45 1012.54 1012.64 1012.76 1012.92 1013.12 1013.36 1013.64 1013.93 1014.22 1014.51 1014.78 1015.03 1015.26 1015.49 1015.70 1015.92 1016.14 1016.38 1016.62 1016.87 1017.13 1017.37 1017.61 1017.81 1017.97 1018.09 1018.16 1018.17 1018.14 1018.06 1017.96 1017.86
1010.53 1010.61 1010.74 1010.94 1011.18 1011.45 1011.72 1011.97 1012.18 1012.36 1012.49 1012.59 1012.68 1012.77 1012.88 1013.02 1013.20 1013.41 1013.67 1013.95 1014.24 1014.54 1014.82 1015.09 1015.34 1015.57 1015.78 1015.97 1016.17 1016.36 1016.56 1016.77 1017.00 1017.22 1017.44 1017.64 1017.80 1017.92 1017.98 1017.99 1017.94 1017.86 1017.77
1010.38 1010.39 1010.47 1010.64 1010.86 1011.14 1011.44 1011.74 1012.02 1012.25 1012.43 1012.57 1012.66 1012.74 1012.82 1012.91 1013.03 1013.20 1013.41 1013.66 1013.94 1014.24 1014.54 1014.83 1015.09 1015.32 1015.51 1015.68 1015.83 1015.97 1016.12 1016.30 1016.49 1016.71 1016.94 1017.17 1017.37 1017.54 1017.66 1017.71 1017.71 1017.67 1017.60
1010.21 1010.15 1010.17 1010.29 1010.49 1010.76 1011.08 1011.41 1011.74 1012.02 1012.25 1012.43 1012.55 1012.63 1012.69 1012.75 1012.82 1012.94 1013.11 1013.32 1013.58 1013.86 1014.15 1014.44 1014.70 1014.91 1015.09 1015.23 1015.35 1015.45 1015.57 1015.71 1015.88 1016.09 1016.33 1016.58 1016.83 1017.05 1017.22 1017.33 1017.39 1017.39 1017.36
1010.07 1009.94 1009.90 1009.96 1010.12 1010.37 1010.69 1011.03 1011.38 1011.70 1011.98 1012.18 1012.33 1012.42 1012.48 1012.52 1012.56 1012.64 1012.75 1012.92 1013.14 1013.39 1013.65 1013.92 1014.16 1014.37 1014.53 1014.66 1014.76 1014.84 1014.93 1015.05 1015.21 1015.42 1015.66 1015.94 1016.21 1016.47 1016.70 1016.87 1016.99 1017.06 1017.08
1010.01 1009.82 1009.72 1009.72 1009.84 1010.05 1010.33 1010.66 1011.01 1011.35 1011.64 1011.88 1012.05 1012.15 1012.21 1012.24 1012.26 1012.30 1012.37 1012.49 1012.65 1012.86 1013.09 1013.32 1013.55 1013.74 1013.90 1014.03 1014.12 1014.21 1014.30 1014.41 1014.56 1014.76 1015.00 1015.28 1015.58 1015.87 1016.13 1016.36 1016.54 1016.67 1016.77
1010.07 1009.84 1009.69 1009.65 1009.70 1009.85 1010.09 1010.38 1010.70 1011.02 1011.31 1011.56 1011.74 1011.86 1011.93 1011.96 1011.96 1011.97 1012.01 1012.08 1012.19 1012.35 1012.54 1012.74 1012.95 1013.14 1013.30 1013.43 1013.54 1013.63 1013.73 1013.85 1013.99 1014.18 1014.42 1014.68 1014.98 1015.28 1015.57 1015.83 1016.06 1016.26 1016.43
1010.27 1010.03 1009.85 1009.76 1009.75 1009.84 1010.01 1010.23 1010.50 1010.78 1011.05 1011.29 1011.48 1011.61 1011.68 1011.71 1011.71 1011.71 1011.71 1011.75 1011.82 1011.93 1012.08 1012.26 1012.44 1012.63 1012.80 1012.95 1013.08 1013.19 1013.30 1013.42 1013.56 1013.74 1013.94 1014.18 1014.45 1014.73 1015.02 1015.30 1015.57 1015.82 1016.05
Thickness
5747 5745 5742 5740 5739 5738 5736 5735 5735 5735 5734 5733 5732 5732 5732 5733 5735 5736 5737 5738 5739 5740 5740 5741 5741 5742 5742 5743 5743 5744 5745 5747 5748 5749 5751 5752 5754 5755 5756 5757 5758 5759 5759
5748 5745 5743 5740 5738 5737 5735 5734 5733 5733 5732 5730 5728 5728 5728 5729 5729 5730 5731 5732 5733 5734 5735 5736 5736 5737 5737 5738 5739 5740 5742 5744 5745 5747 5748 5750 5751 5753 5754 5755 5756 5757 5757
5749 5745 5742 5739 5737 5736 5734 5731 5729 5729 5728 5726 5723 5723 5724 5724 5724 5724 5725 5726 5726 5727 5728 5729 5730 5731 5731 5732 5734 5735 5737 5740 5742 5744 5745 5747 5749 5750 5752 5753 5754 5754 5755
5751 5746 5743 5740 5737 5734 5731 5728 5726 5723 5722 5720 5718 5718 5719 5719 5718 5718 5718 5719 5720 5720 5721 5722 5723 5725 5726 5727 5728 5730 5733 5735 5738 5740 5742 5744 5746 5748 5749 5750 5751 5752 5753
5751 5747 5744 5741 5737 5733 5729 5727 5723 5720 5716 5714 5714 5714 5714 5713 5713 5713 5712 5712 5713 5714 5715 5716 5717 5718 5720 5722 5723 5726 5728 5731 5733 5736 5738 5740 5742 5745 5746 5748 5749 5750 5750
5750 5746 5742 5740 5736 5730 5727 5725 5720 5717 5713 5711 5710 5708 5708 5709 5709 5708 5707 5707 5707 5708 5709 5710 5711 5712 5714 5716 5718 5720 5723 5726 5729 5731 5734 5736 5738 5741 5743 5744 5746 5747 5748
5746 5742 5739 5736 5733 5729 5726 5722 5717 5712 5708 5706 5701 5697 5700 5704 5704 5704 5703 5703 5702 5703 5704 5705 5706 5707 5708 5710 5712 5715 5718 5721 5723 5726 5729 5731 5733 5736 5738 5740 5742 5743 5745
5743 5739 5734 5732 5730 5726 5722 5719 5714 5707 5704 5702 5696 5689 5686 5691 5697 5700 5699 5698 5698 5698 5699 5700 5701 5702 5703 5705 5706 5709 5711 5714 5718 5720 5723 5726 5729 5731 5734 5736 5738 5740 5741
5739 5735 5732 5728 5725 5723 5718 5716 5713 5707 5699 5697 5697 5690 5682 5681 5687 5692 5694 5695 5695 5695 5696 5696 5697 5697 5699 5700 5702 5704 5706 5709 5712 5715 5718 5720 5723 5726 5729 5731 5734 5736 5738
5734 5731 5728 5725 5722 5719 5715 5712 5710 5706 5701 5693 5692 5693 5691 5689 5684 5683 5688 5691 5692 5692 5693 5694 5694 5695 5695 5696 5698 5699 5701 5704 5707 5709 5712 5715 5718 5721 5724 5726 5729 5732 5734
5730 5727 5724 5721 5718 5715 5712 5708 5706 5703 5700 5694 5691 5688 5687 5687 5687 5683 5680 5684 5687 5690 5691 5692 5693 5693 5693 5693 5695 5696 5698 5699 5702 5704 5707 5710 5713 5716 5718 5721 5725 5728 5730
5725 5722 5720 5717 5714 5710 5707 5704 5702 5700 5697 5694 5692 5690 5687 5684 5683 5682 5680 5680 5682 5687 5690 5690 5691 5692 5692 5692 5693 5694 5695 5696 5697 5699 5701 5704 5707 5710 5713 5716 5719 5723 5726
5718 5717 5715 5712 5709 5705 5702 5700 5697 5695 5693 5692 5691 5689 5688 5687 5686 5683 5680 5679 5680 5684 5687 5688 5690 5691 5691 5691 5691 5692 5692 5692 5693 5694 5696 5698 5701 5704 5707 5710 5713 5716 5719
5714 5712 5710 5707 5704 5701 5698 5695 5693 5691 5690 5690 5689 5688 5687 5686 5685 5683 5681 5677 5676 5678 5682 5686 5689 5690 5691 5691 5691 5690 5690 5689 5690 5690 5692 5694 5696 5698 5701 5703 5706 5709 5712
5709 5707 5705 5702 5699 5696 5694 5692 5690 5688 5688 5688 5687 5687 5685 5685 5683 5682 5681 5679 5676 5673 5676 5684 5687 5690 5690 5689 5689 5688 5688 5687 5687 5687 5688 5690 5691 5693 5695 5697 5700 5702 5705
5703 5700 5698 5696 5694 5692 5690 5689 5687 5687 5686 5685 5685 5684 5683 5682 5681 5680 5679 5678 5678 5677 5677 5683 5686 5690 5689 5688 5687 5686 5686 5685 5685 5684 5685 5686 5687 5689 5690 5692 5694 5697 5699
5697 5694 5691 5689 5688 5686 5685 5684 5683 5683 5683 5682 5682 5682 5681 5680 5679 5677 5676 5675 5675 5675 5675 5680 5684 5686 5686 5685 5685 5683 5682 5682 5682 5682 5682 5682 5683 5685 5686 5687 5689 5691 5694
5692 5689 5686 5684 5682 5681 5679 5679 5678 5678 5678 5678 5678 5678 5677 5677 5675 5674 5672 5672 5671 5672 5673 5673 5677 5680 5681 5682 5682 5680 5679 5679 5679 5679 5679 5679 5680 5681 5682 5683 5684 5686 5688
5687 5684 5682 5679 5677 5675 5674 5673 5673 5673 5673 5673 5673 5673 5673 5672 5671 5671 5669 5668 5668 5668 5669 5669 5671 5675 5676 5677 5675 5674 5675 5675 5676 5676 5676 5676 5677 5677 5678 5679 5680 5681 5683
5682 5680 5678 5676 5673 5671 5669 5668 5667 5666 5666 5666 5667 5667 5667 5667 5666 5665 5665 5664 5663 5662 5663 5664 5665 5667 5669 5672 5671 5669 5669 5670 5672 5674 5674 5674 5673 5674 5674 5675 5676 5676 5677
5679 5676 5673 5671 5669 5667 5666 5664 5662 5661 5659 5659 5659 5660 5661 5661 5662 5661 5660 5659 5658 5657 5657 5658 5658 5660 5661 5663 5665 5667 5667 5667 5668 5669 5668 5669 5670 5670 5671 5672 5672 5672 5672
5674 5671 5668 5666 5664 5664 5664 5662 5659 5657 5655 5653 5653 5654 5655 5656 5657 5657 5656 5656 5655 5654 5653 5652 5652 5654 5656 5660 5662 5663 5662 5661 5661 5664 5663 5665 5666 5666 5667 5668 5668 5668 5668
5666 5665 5664 5662 5660 5660 5660 5659 5656 5653 5651 5649 5649 5649 5650 5653 5653 5652 5652 5652 5652 5652 5652 5651 5649 5651 5653 5656 5658 5658 5659 5661 5664 5665 5662 5661 5661 5662 5664 5665 5665 5664 5663
5659 5658 5658 5657 5656 5656 5656 5655 5652 5649 5647 5646 5645 5646 5646 5648 5650 5649 5648 5647 5648 5649 5649 5650 5650 5652 5653 5655 5656 5658 5659 5660 5661 5661 5661 5658 5657 5659 5662 5662 5662 5661 5659
5652 5652 5652 5652 5651 5651 5652 5650 5648 5643 5641 5641 5641 5642 5643 5644 5647 5647 5644 5643 5644 5646 5648 5649 5650 5650 5651 5652 5653 5652 5652 5652 5653 5656 5657 5656 5656 5654 5655 5657 5658 5657 5656
5647 5647 5647 5647 5646 5645 5646 5645 5643 5638 5635 5634 5636 5638 5640 5641 5643 5644 5641 5640 5640 5642 5644 5645 5645 5647 5647 5648 5649 5649 5649 5648 5648 5650 5654 5653 5651 5648 5648 5651 5652 5652 5650